Vorticity
nan nan nan nan nan nan nan nan nan nan nan nan nan nan nan nan nan nan nan nan nan nan
nan 9 9 9 10 10 9 9 8 9 8 8 8 7 9 9 8 9 10 9 9 nan
nan 7 8 9 9 9 9 9 9 9 9 9 7 7 10 10 8 10 11 8 8 nan
nan 8 9 8 8 8 8 8 9 9 9 8 7 8 9 9 9 10 10 10 9 nan
nan 8 8 8 8 8 9 9 8 9 9 7 7 8 8 9 9 9 9 9 10 nan
nan 8 8 8 9 9 8 8 9 8 9 7 6 8 8 9 9 9 9 9 10 nan
nan 8 8 8 8 9 8 8 8 8 9 7 6 6 7 9 9 9 9 9 10 nan
nan 8 8 8 8 7 8 8 8 8 9 8 6 5 7 11 11 8 9 9 9 nan
nan 8 8 8 8 8 8 8 8 9 9 9 5 3 8 13 14 8 8 8 8 nan
nan 8 8 8 8 8 9 8 7 8 10 8 4 4 8 13 14 8 8 9 10 nan
nan 8 8 8 8 8 7 8 8 8 9 9 4 3 9 14 13 9 8 9 9 nan
nan 8 8 7 8 8 8 8 9 8 8 10 4 4 9 16 12 8 9 10 9 nan
nan 8 8 8 7 8 9 9 9 8 8 9 6 3 7 17 13 9 9 8 8 nan
nan nan nan nan nan nan nan nan nan nan nan nan nan nan nan nan nan nan nan nan nan nan
CAPE
0 0 0 0 0 0 0 0 0 0 0 0 3 3 5 1 1 2 3 2 6 6
0 0 0 0 0 0 0 0 0 0 0 0 1 1 0 0 1 3 4 7 8 9
0 0 0 0 0 0 0 0 0 0 1 3 3 3 1 1 2 4 5 5 7 10
0 0 0 0 0 0 0 0 0 0 0 1 2 0 0 1 1 3 7 3 5 8
0 0 0 0 0 0 0 0 0 0 0 2 0 0 2 2 4 6 5 9 8 7
0 0 0 0 0 0 0 0 0 0 0 1 0 1 0 1 2 3 4 5 7 9
0 0 0 0 0 0 0 0 0 0 0 1 1 0 0 1 4 3 2 7 8 5
0 0 0 0 0 0 0 0 0 0 0 0 0 0 4 2 2 2 2 4 3 6
0 0 0 0 0 0 0 0 0 0 0 1 0 4 3 4 1 1 1 2 1 3
0 0 0 0 0 0 0 0 0 0 0 0 0 4 5 1 0 1 1 2 4 2
0 0 0 0 0 0 0 0 0 0 0 0 0 4 3 0 0 0 0 1 4 5
0 0 0 0 0 0 0 0 0 0 0 0 1 2 5 0 0 0 0 0 2 5
0 0 0 0 0 0 0 0 0 0 0 0 0 0 2 3 0 0 0 0 0 1
0 0 0 0 0 0 0 0 0 0 0 0 0 0 2 3 2 3 3 4 6 7